Time,TemperatureF,DewpointF,PressureIn,WindDirection,WindDirectionDegrees,WindSpeedMPH,WindSpeedGustMPH,Humidity,HourlyPrecipIn,Conditions,Clouds,dailyrainin,SoftwareType,DateUTC
2014-11-01 00:01:00,28.7,19.1,30.48,NNE,30,5.0,7.0,67,0.00,,FEW080,0.00,VWS V15.00,2014-11-01 05:01:00,
2014-11-01 00:07:00,28.6,19.4,30.48,NNE,28,4.0,7.0,68,0.00,,FEW080,0.00,VWS V15.00,2014-11-01 05:07:00,
2014-11-01 00:12:00,28.6,19.4,30.48,NNE,29,4.0,4.0,68,0.00,,FEW080,0.00,VWS V15.00,2014-11-01 05:12:00,
2014-11-01 00:17:00,28.5,19.3,30.48,NNE,26,4.0,5.0,68,0.00,,FEW080,0.00,VWS V15.00,2014-11-01 05:17:00,
2014-11-01 00:22:00,28.5,19.3,30.47,NNE,29,4.0,5.0,68,0.00,,FEW080,0.00,VWS V15.00,2014-11-01 05:22:00,
2014-11-01 00:26:00,28.4,19.2,30.47,NNE,31,5.0,5.0,68,0.00,,FEW080,0.00,VWS V15.00,2014-11-01 05:26:00,
2014-11-01 00:31:00,28.3,19.1,30.48,NNE,29,5.0,5.0,68,0.00,,FEW080,0.00,VWS V15.00,2014-11-01 05:31:00,
2014-11-01 00:36:00,28.2,19.0,30.47,NE,34,4.0,7.0,68,0.00,,SCT043,0.00,VWS V15.00,2014-11-01 05:36:00,
2014-11-01 00:42:00,28.1,19.3,30.47,NNE,33,4.0,5.0,69,0.00,,SCT043,0.00,VWS V15.00,2014-11-01 05:42:00,
2014-11-01 00:46:00,28.2,19.0,30.47,NNE,32,4.0,6.0,68,0.00,,SCT043,0.00,VWS V15.00,2014-11-01 05:46:00,
2014-11-01 00:51:00,28.1,19.3,30.47,NNE,29,3.0,4.0,69,0.00,,SCT043,0.00,VWS V15.00,2014-11-01 05:51:00,
2014-11-01 00:56:00,28.1,19.3,30.47,NNE,15,3.0,4.0,69,0.00,,SCT043,0.00,VWS V15.00,2014-11-01 05:56:00,
2014-11-01 01:01:00,28.1,19.3,30.48,NNE,32,2.0,4.0,69,0.00,,SCT043,0.00,VWS V15.00,2014-11-01 06:01:00,
2014-11-01 01:06:00,28.1,19.3,30.48,NNE,23,3.0,5.0,69,0.00,,SCT043,0.00,VWS V15.00,2014-11-01 06:06:00,
2014-11-01 01:11:00,28.0,19.2,30.47,NNE,31,4.0,4.0,69,0.00,,SCT043,0.00,VWS V15.00,2014-11-01 06:11:00,
2014-11-01 01:16:00,27.8,19.0,30.47,NNE,31,4.0,4.0,69,0.00,,SCT043,0.00,VWS V15.00,2014-11-01 06:16:00,
2014-11-01 01:21:00,27.6,19.1,30.47,NNE,31,3.0,4.0,70,0.00,,SCT043,0.00,VWS V15.00,2014-11-01 06:21:00,
2014-11-01 01:26:00,27.4,18.9,30.47,NE,35,3.0,5.0,70,0.00,,SCT043,0.00,VWS V15.00,2014-11-01 06:26:00,
2014-11-01 01:31:00,27.4,18.9,30.48,NE,35,4.0,4.0,70,0.00,,SCT043,0.00,VWS V15.00,2014-11-01 06:31:00,
2014-11-01 01:36:00,27.3,18.8,30.48,NE,35,4.0,4.0,70,0.00,,CLR,0.00,VWS V15.00,2014-11-01 06:36:00,
2014-11-01 01:41:00,27.3,18.8,30.48,NNE,33,3.0,4.0,70,0.00,,CLR,0.00,VWS V15.00,2014-11-01 06:41:00,
2014-11-01 01:46:00,27.2,18.7,30.48,NE,34,3.0,4.0,70,0.00,,CLR,0.00,VWS V15.00,2014-11-01 06:46:00,
2014-11-01 01:51:00,27.2,19.1,30.48,NNE,31,4.0,4.0,71,0.00,,CLR,0.00,VWS V15.00,2014-11-01 06:51:00,
2014-11-01 01:56:00,27.2,19.1,30.48,NNE,28,4.0,5.0,71,0.00,,CLR,0.00,VWS V15.00,2014-11-01 06:56:00,
2014-11-01 02:01:00,27.2,18.7,30.48,NNE,28,4.0,4.0,70,0.00,,CLR,0.00,VWS V15.00,2014-11-01 07:01:00,
2014-11-01 02:06:00,27.1,19.0,30.48,NNE,28,4.0,5.0,71,0.00,,CLR,0.00,VWS V15.00,2014-11-01 07:06:00,
2014-11-01 02:11:00,27.1,19.0,30.48,NNE,28,4.0,4.0,71,0.00,,CLR,0.00,VWS V15.00,2014-11-01 07:11:00,
2014-11-01 02:16:00,27.0,18.9,30.48,NNE,29,4.0,5.0,71,0.00,,CLR,0.00,VWS V15.00,2014-11-01 07:16:00,
2014-11-01 02:21:00,27.0,18.9,30.48,NNE,28,2.0,4.0,71,0.00,,CLR,0.00,VWS V15.00,2014-11-01 07:21:00,
2014-11-01 02:26:00,26.9,18.8,30.48,NNE,28,2.0,4.0,71,0.00,,CLR,0.00,VWS V15.00,2014-11-01 07:26:00,
2014-11-01 02:31:00,26.9,18.8,30.48,NNE,28,3.0,3.0,71,0.00,,CLR,0.00,VWS V15.00,2014-11-01 07:31:00,
2014-11-01 02:36:00,26.8,19.0,30.49,NNE,27,3.0,4.0,72,0.00,,CLR,0.00,VWS V15.00,2014-11-01 07:36:00,
2014-11-01 02:41:00,26.7,18.9,30.49,NNE,27,3.0,4.0,72,0.00,,CLR,0.00,VWS V15.00,2014-11-01 07:41:00,
2014-11-01 02:46:00,26.6,18.8,30.49,NNE,27,3.0,4.0,72,0.00,,CLR,0.00,VWS V15.00,2014-11-01 07:46:00,
2014-11-01 02:51:00,26.5,18.7,30.49,NNE,27,2.0,3.0,72,0.00,,CLR,0.00,VWS V15.00,2014-11-01 07:51:00,
2014-11-01 02:56:00,26.4,18.9,30.49,NNE,27,3.0,4.0,73,0.00,,CLR,0.00,VWS V15.00,2014-11-01 07:56:00,
2014-11-01 03:01:00,26.3,18.8,30.49,NNE,27,3.0,3.0,73,0.00,,CLR,0.00,VWS V15.00,2014-11-01 08:01:00,
2014-11-01 03:06:00,26.1,18.6,30.49,NNE,27,3.0,4.0,73,0.00,,CLR,0.00,VWS V15.00,2014-11-01 08:06:00,
2014-11-01 03:11:00,26.0,18.9,30.49,NNE,26,3.0,4.0,74,0.00,,CLR,0.00,VWS V15.00,2014-11-01 08:11:00,
2014-11-01 03:16:00,25.9,18.8,30.49,NNE,22,2.0,4.0,74,0.00,,CLR,0.00,VWS V15.00,2014-11-01 08:16:00,
2014-11-01 03:21:00,25.8,18.7,30.49,NNE,22,3.0,4.0,74,0.00,,CLR,0.00,VWS V15.00,2014-11-01 08:21:00,
2014-11-01 03:26:00,25.6,18.8,30.49,NNE,22,3.0,4.0,75,0.00,,CLR,0.00,VWS V15.00,2014-11-01 08:26:00,
2014-11-01 03:31:00,25.4,18.6,30.49,NNE,22,3.0,3.0,75,0.00,,CLR,0.00,VWS V15.00,2014-11-01 08:31:00,
2014-11-01 03:36:00,25.1,18.6,30.49,NNE,22,3.0,3.0,76,0.00,,CLR,0.00,VWS V15.00,2014-11-01 08:36:00,
2014-11-01 03:41:00,25.0,18.5,30.49,NNE,22,2.0,3.0,76,0.00,,CLR,0.00,VWS V15.00,2014-11-01 08:41:00,
2014-11-01 03:46:00,24.9,18.4,30.48,NNE,13,4.0,4.0,76,0.00,,CLR,0.00,VWS V15.00,2014-11-01 08:46:00,
2014-11-01 03:51:00,25.0,18.5,30.49,NNE,13,3.0,5.0,76,0.00,,CLR,0.00,VWS V15.00,2014-11-01 08:51:00,
2014-11-01 03:56:00,25.1,18.6,30.48,NNE,28,4.0,5.0,76,0.00,,CLR,0.00,VWS V15.00,2014-11-01 08:56:00,
2014-11-01 04:01:00,25.2,18.4,30.48,NNE,30,3.0,3.0,75,0.00,,CLR,0.00,VWS V15.00,2014-11-01 09:01:00,
2014-11-01 04:06:00,25.2,18.7,30.48,NNE,30,3.0,3.0,76,0.00,,CLR,0.00,VWS V15.00,2014-11-01 09:06:00,
2014-11-01 04:11:00,25.1,18.3,30.48,NNE,30,4.0,4.0,75,0.00,,CLR,0.00,VWS V15.00,2014-11-01 09:11:00,
2014-11-01 04:16:00,24.9,18.4,30.49,NNE,30,3.0,4.0,76,0.00,,CLR,0.00,VWS V15.00,2014-11-01 09:16:00,
2014-11-01 04:21:00,24.8,18.3,30.49,NNE,30,2.0,3.0,76,0.00,,CLR,0.00,VWS V15.00,2014-11-01 09:21:00,
2014-11-01 04:26:00,24.8,18.3,30.49,NNE,30,1.0,4.0,76,0.00,,CLR,0.00,VWS V15.00,2014-11-01 09:26:00,
2014-11-01 04:31:00,24.7,18.2,30.49,NNE,30,2.0,2.0,76,0.00,,CLR,0.00,VWS V15.00,2014-11-01 09:31:00,
2014-11-01 04:36:00,24.7,18.2,30.49,NNE,30,2.0,2.0,76,0.00,,CLR,0.00,VWS V15.00,2014-11-01 09:36:00,
2014-11-01 04:41:00,24.7,18.2,30.49,NNE,30,2.0,2.0,76,0.00,,CLR,0.00,VWS V15.00,2014-11-01 09:41:00,
2014-11-01 04:46:00,24.7,18.2,30.49,NNE,30,2.0,2.0,76,0.00,,CLR,0.00,VWS V15.00,2014-11-01 09:46:00,
2014-11-01 04:51:00,24.7,18.2,30.49,NNE,29,2.0,2.0,76,0.00,,CLR,0.00,VWS V15.00,2014-11-01 09:51:00,
2014-11-01 04:56:00,24.6,18.4,30.49,NNE,29,2.0,3.0,77,0.00,,CLR,0.00,VWS V15.00,2014-11-01 09:56:00,
2014-11-01 05:01:00,24.6,18.4,30.49,NNE,12,3.0,3.0,77,0.00,,CLR,0.00,VWS V15.00,2014-11-01 10:01:00,
2014-11-01 05:06:00,24.5,18.3,30.50,NNE,12,2.0,3.0,77,0.00,,CLR,0.00,VWS V15.00,2014-11-01 10:06:00,
2014-11-01 05:11:00,24.5,18.3,30.50,NNE,12,2.0,3.0,77,0.00,,CLR,0.00,VWS V15.00,2014-11-01 10:11:00,
2014-11-01 05:16:00,24.4,18.2,30.50,North,9,3.0,3.0,77,0.00,,CLR,0.00,VWS V15.00,2014-11-01 10:16:00,
2014-11-01 05:21:00,24.4,18.2,30.50,North,9,3.0,3.0,77,0.00,,CLR,0.00,VWS V15.00,2014-11-01 10:21:00,
2014-11-01 05:26:00,24.3,18.4,30.50,North,9,2.0,3.0,78,0.00,,CLR,0.00,VWS V15.00,2014-11-01 10:26:00,
2014-11-01 05:31:00,24.3,18.4,30.50,North,9,2.0,3.0,78,0.00,,CLR,0.00,VWS V15.00,2014-11-01 10:31:00,
2014-11-01 05:36:00,24.3,18.4,30.50,North,9,3.0,3.0,78,0.00,,CLR,0.00,VWS V15.00,2014-11-01 10:36:00,
2014-11-01 05:41:00,24.2,18.3,30.50,North,9,2.0,2.0,78,0.00,,CLR,0.00,VWS V15.00,2014-11-01 10:41:00,
2014-11-01 05:46:00,24.2,18.3,30.50,North,9,3.0,3.0,78,0.00,,CLR,0.00,VWS V15.00,2014-11-01 10:46:00,
2014-11-01 05:51:00,24.2,18.3,30.50,North,9,2.0,3.0,78,0.00,,CLR,0.00,VWS V15.00,2014-11-01 10:51:00,
2014-11-01 05:56:00,24.1,18.2,30.50,North,9,2.0,3.0,78,0.00,,CLR,0.00,VWS V15.00,2014-11-01 10:56:00,
2014-11-01 06:01:00,24.0,18.1,30.50,North,9,2.0,2.0,78,0.00,,CLR,0.00,VWS V15.00,2014-11-01 11:01:00,
2014-11-01 06:06:00,24.0,18.1,30.50,North,9,2.0,3.0,78,0.00,,CLR,0.00,VWS V15.00,2014-11-01 11:06:00,
2014-11-01 06:11:00,23.9,18.0,30.51,North,9,2.0,2.0,78,0.00,,CLR,0.00,VWS V15.00,2014-11-01 11:11:00,
2014-11-01 06:16:00,23.9,18.4,30.51,North,9,3.0,3.0,79,0.00,,CLR,0.00,VWS V15.00,2014-11-01 11:16:00,
2014-11-01 06:21:00,23.8,18.2,30.51,North,9,2.0,3.0,79,0.00,,CLR,0.00,VWS V15.00,2014-11-01 11:21:00,
2014-11-01 06:26:00,23.8,18.2,30.51,NNE,13,3.0,3.0,79,0.00,,CLR,0.00,VWS V15.00,2014-11-01 11:26:00,
2014-11-01 06:31:00,23.8,18.2,30.51,NNE,13,3.0,3.0,79,0.00,,CLR,0.00,VWS V15.00,2014-11-01 11:31:00,
2014-11-01 06:36:00,23.7,18.1,30.51,NNE,13,3.0,3.0,79,0.00,,FEW250,0.00,VWS V15.00,2014-11-01 11:36:00,
2014-11-01 06:41:00,23.6,18.1,30.51,NNE,13,3.0,3.0,79,0.00,,FEW250,0.00,VWS V15.00,2014-11-01 11:41:00,
2014-11-01 06:46:00,23.6,18.4,30.51,NNE,13,2.0,3.0,80,0.00,,FEW250,0.00,VWS V15.00,2014-11-01 11:46:00,
2014-11-01 06:51:00,23.6,18.4,30.51,NNE,13,2.0,2.0,80,0.00,,FEW250,0.00,VWS V15.00,2014-11-01 11:51:00,
2014-11-01 06:56:00,23.6,18.4,30.51,NNE,13,3.0,3.0,80,0.00,,FEW250,0.00,VWS V15.00,2014-11-01 11:56:00,
2014-11-01 07:01:00,23.5,18.2,30.52,NNE,13,2.0,3.0,80,0.00,,FEW250,0.00,VWS V15.00,2014-11-01 12:01:00,
2014-11-01 07:06:00,23.5,18.2,30.52,NNE,13,2.0,3.0,80,0.00,,FEW250,0.00,VWS V15.00,2014-11-01 12:06:00,
2014-11-01 07:11:00,23.4,18.1,30.52,NNE,13,2.0,3.0,80,0.00,,FEW250,0.00,VWS V15.00,2014-11-01 12:11:00,
2014-11-01 07:16:00,23.3,18.1,30.52,NNE,13,2.0,3.0,80,0.00,,FEW250,0.00,VWS V15.00,2014-11-01 12:16:00,
2014-11-01 07:21:00,23.2,18.0,30.52,NNE,13,2.0,2.0,80,0.00,,FEW250,0.00,VWS V15.00,2014-11-01 12:21:00,
2014-11-01 07:26:00,23.1,18.1,30.52,NNE,13,2.0,2.0,81,0.00,,FEW250,0.00,VWS V15.00,2014-11-01 12:26:00,
2014-11-01 07:31:00,23.1,18.1,30.52,NNE,13,2.0,2.0,81,0.00,,FEW250,0.00,VWS V15.00,2014-11-01 12:31:00,
2014-11-01 07:36:00,23.0,18.0,30.52,NNE,13,1.0,2.0,81,0.00,,SCT035,0.00,VWS V15.00,2014-11-01 12:36:00,
2014-11-01 07:41:00,23.0,18.0,30.53,NNE,13,1.0,2.0,81,0.00,,SCT035,0.00,VWS V15.00,2014-11-01 12:41:00,
2014-11-01 07:46:00,22.9,18.2,30.53,NNE,13,1.0,2.0,82,0.00,,SCT035,0.00,VWS V15.00,2014-11-01 12:46:00,
2014-11-01 07:51:00,22.9,18.2,30.53,NNE,13,2.0,2.0,82,0.00,,SCT035,0.00,VWS V15.00,2014-11-01 12:51:00,
2014-11-01 07:56:00,22.9,18.2,30.53,NNE,13,2.0,2.0,82,0.00,,SCT035,0.00,VWS V15.00,2014-11-01 12:56:00,
2014-11-01 08:01:00,22.8,18.1,30.53,NNE,13,2.0,2.0,82,0.00,,SCT035,0.00,VWS V15.00,2014-11-01 13:01:00,
2014-11-01 08:06:00,22.8,18.1,30.53,NNE,13,2.0,2.0,82,0.00,,SCT035,0.00,VWS V15.00,2014-11-01 13:06:00,
2014-11-01 08:11:00,22.8,18.4,30.53,NNE,13,1.0,2.0,83,0.00,,SCT035,0.00,VWS V15.00,2014-11-01 13:11:00,
2014-11-01 08:16:00,22.8,18.4,30.53,NNE,13,1.0,2.0,83,0.00,,SCT035,0.00,VWS V15.00,2014-11-01 13:16:00,
2014-11-01 08:21:00,22.9,18.5,30.52,NNE,13,2.0,2.0,83,0.00,,SCT035,0.00,VWS V15.00,2014-11-01 13:21:00,
2014-11-01 08:26:00,22.9,18.5,30.52,NNE,13,1.0,3.0,83,0.00,,SCT035,0.00,VWS V15.00,2014-11-01 13:26:00,
2014-11-01 08:31:00,23.0,18.6,30.52,NNE,13,1.0,2.0,83,0.00,,SCT035,0.00,VWS V15.00,2014-11-01 13:31:00,
2014-11-01 08:36:00,23.1,18.7,30.53,NNE,13,1.0,2.0,83,0.00,,FEW035,0.00,VWS V15.00,2014-11-01 13:36:00,
2014-11-01 08:41:00,23.1,18.7,30.53,NNE,22,0.0,0.0,83,0.00,,FEW035,0.00,VWS V15.00,2014-11-01 13:41:00,
2014-11-01 08:46:00,23.2,18.8,30.53,NNE,21,0.0,0.0,83,0.00,,FEW035,0.00,VWS V15.00,2014-11-01 13:46:00,
2014-11-01 08:51:00,23.3,18.9,30.52,NNE,21,0.0,0.0,83,0.00,,FEW035,0.00,VWS V15.00,2014-11-01 13:51:00,
2014-11-01 08:56:00,23.4,19.0,30.52,NNE,22,0.0,0.0,83,0.00,,FEW035,0.00,VWS V15.00,2014-11-01 13:56:00,
2014-11-01 09:01:00,23.6,19.5,30.52,NNE,22,0.0,0.0,84,0.00,,FEW035,0.00,VWS V15.00,2014-11-01 14:01:00,
2014-11-01 09:06:00,24.0,19.9,30.52,NNE,22,0.0,0.0,84,0.00,,FEW035,0.00,VWS V15.00,2014-11-01 14:06:00,